logo
Search for airport 
image banner adimage banner adimage banner ad
image banner ad

KRUT - Rutland/Southern Vermont Rgnl

Located in Rutland, United States

ICAO - RUT, IATA - RUT

Data provided by Airmate  

General information

Coordinates: N43°31'47" W72°56'59"
Elevation is 787 feet MSL.
Magnetic variation is -15° East
View others Airports in Vermont

Operational data

Special qualification required
Current time UTC:
Current local time:
Weather
METAR: KRUT 270256Z AUTO 12011KT 10SM FEW060 22/16 A2993 RMK AO2 SLP127 T02170161 50004 $
TAF: KRUT 262333Z 2700/2724 VRB04KT P6SM SCT190 FM270700 12008G14KT P6SM BKN080 FM271400 12013G21KT P6SM BKN035 WS020/16040KT FM271800 13013G23KT P6SM VCSH OVC027 WS020/17045KT FM272000 13013G22KT 5SM -SHRA BR OVC013 WS020/17045KT
View NOTAMs / SUP AIP / TFR affecting this airport [VIEW]
Communications frequencies: [VIEW]

Runways:

RWY identifierQFULength (ft)Width (ft)SurfaceLDA (ft)
01359°5304100ASPH5003
19179°5304100ASPH5003
13119°316975ASPH
31299°316975ASPH

Airport contact information

Address: Rutland United States

Satellite view of KRUT